Game Statistics: Achievement

Players that achieved it

PlayerCharacterDate
Sewaki冲田总司,骷髅被诅咒者,等级172021-01-24 04:21:21
HeilemiaoUggonla,科纳克人死灵法师,等级222021-01-24 02:31:57
15023878275杜旺键,高等人类炼金术师,等级82021-01-23 23:53:37
atomic156Fucker the Yeek Archmage level 352021-01-23 21:01:39
Ne_CobaltNe_Cobalt the 코르낙 타락자 level 362021-01-23 18:11:35
GrrblLyaera the Doomelf Necromancer level 232021-01-23 17:13:29
meisterm2Glain the Ogre Adventurer level 462021-01-23 11:43:46
quatreashaq the Cornac Shadowblade level 212021-01-23 11:33:46
ik1591bbbb the 코르낙 저주받은 자 level 502021-01-23 04:31:27
gusrb771Mr.Bubbles the 코르낙 용인 level 232021-01-23 03:22:55
MalmaMalmalma the Yeek Summoner level 242021-01-23 00:54:23
DoneLoop,巫妖死灵法师,等级502021-01-23 00:14:28
simtiti3PewPew the 스켈레톤 궁수 level 272021-01-22 20:27:17
prtfnxNECR5 the Shalore Necromancer level 262021-01-22 18:43:52
cvenegasaBulky the Cornac Bulwark level 162021-01-22 17:09:55
suikeinaGauntlette the Higher Brawler level 202021-01-22 16:45:51
bolekBolek the Dwarf Bulwark level 202021-01-22 13:43:36
rustndustyTril the Cornac Oozemancer level 442021-01-22 13:29:48
IeiunitasIeiunitas the Skeleton Temporal Warden level 382021-01-22 12:13:33
khaotomAdamacydie the Higher Necromancer level 302021-01-22 08:44:12
NobuharaBoltMeUp the Higher Archmage level 242021-01-22 04:12:57
flyingpancakeMaurMaur the Krog Marauder level 332021-01-22 02:34:54
wujiadewujiadelongqishi!,自然精灵龙战士,等级252021-01-22 02:28:57
dmj221Jemebe the 코르낙 마도사 level 462021-01-22 00:47:38
cydexHaaell the Rhaloren Sun Paladin level 152021-01-21 23:46:15